Content
SEND FEEDBACK

Daily
Averages
Monthly
Summary
United States of America

ZURICH, MONTANA


Home > North America > United States > Montana
Elevation: 2554 feet     Latitude: 48 34N     Longitude: 109 40W

WEATHER
 
SELECT A DAY
Number of Records: 192,997;   Date Range: 1/1/95 - 7/27/14
 
SHARE

PRINT THIS DATA

[ ← Previous Day ]
WEATHER ALMANAC - FEBRUARY 13, 2013
[ Next Day → ]
[ °C ]   °F
Weather ElementAverageHighLow
Temperature34 °F39 °F (1:53 pm)26.1 °F (11:53 pm)
Dewpoint24.5 °F28.9 °F (1:53 am)17.1 °F (11:53 pm)
Humidity68.6 %78 % (3:53 am)61 % (7:53 pm)
Barometer29.97 in30.27 in (11:53 pm)29.78 in (1:53 am)
Wind Speed12.5 mph21.9 mph (5:53 pm)
Wind Gust35.7 mph (5:53 pm)
Weather ElementAverage
Visibility10 mi
Wind DirectionWNW (277 °)

Weather ElementTotal
Precipitation---
Heating Degree Days32.5 (Base 65)
Averaged from 23 records on February 13, 2013
WEATHER CONDITIONS BREAKOUT
WIND DIRECTION BREAKOUT
WEATHER BY HOUR - FEBRUARY 13, 2013
[ °C ]   °F
Local TimeTemperatureDewpointHumidityBarometerVisibilityWind DirectionWind SpeedGust SpeedPrecipitationEventsConditions
1:53 AM37.0 °F28.9 °F73 %29.78 in10.0 miSW (220°)15.0 mphOvercast
2:53 AM36.0 °F28.9 °F76 %29.78 in10.0 miSSW (210°)11.5 mphOvercast
3:53 AM35.1 °F28.9 °F78 %29.78 in10.0 miSouth (190°)9.2 mphMostly Cloudy
4:53 AM33.1 °F26.1 °F75 %29.78 in10.0 miWSW (250°)8.1 mphClear
5:53 AM35.1 °F25.0 °F67 %29.79 in10.0 miWNW (300°)15.0 mphScattered Clouds
6:53 AM33.1 °F25.0 °F72 %29.81 in10.0 miWNW (300°)9.2 mphMostly Cloudy
7:53 AM33.1 °F25.0 °F72 %29.84 in10.0 miNNW (340°)6.9 mphOvercast
8:53 AM36.0 °F26.1 °F67 %29.86 in10.0 miWest (280°)11.5 mphOvercast
9:53 AM36.0 °F27.0 °F70 %29.86 in10.0 miSW (230°)6.9 mphClear
10:53 AM37.0 °F25.0 °F62 %29.89 in10.0 miWest (270°)11.5 mphClear
11:53 AM37.9 °F28.0 °F68 %29.92 in10.0 miNW (310°)13.8 mphScattered Clouds
12:53 PM37.9 °F28.9 °F70 %29.94 in10.0 miWNW (300°)10.4 mphPartly Cloudy
1:53 PM39.0 °F28.0 °F65 %29.95 in10.0 miNW (310°)11.5 mphClear
2:53 PM37.9 °F26.1 °F62 %29.98 in10.0 miNNW (330°)12.7 mphScattered Clouds
3:53 PM37.0 °F25.0 °F62 %30.00 in10.0 miNorth (10°)8.1 mphOvercast
4:53 PM35.1 °F25.0 °F67 %30.05 in10.0 miNorth (360°)12.7 mphOvercast
5:53 PM33.1 °F24.1 °F70 %30.09 in9.0 miNW (320°)21.9 mph35.7 mph0.00 inSnowLight Snow
6:53 PM30.9 °F23.0 °F72 %30.11 in10.0 miWNW (290°)9.2 mph0.00 inOvercast
7:53 PM30.9 °F19.0 °F61 %30.14 in10.0 miNW (320°)19.6 mph28.8 mphOvercast
8:53 PM28.9 °F18.0 °F64 %30.17 in10.0 miNW (320°)17.3 mph23.0 mphScattered Clouds
9:53 PM28.0 °F18.0 °F66 %30.19 in10.0 miNW (310°)18.4 mph24.2 mphMostly Cloudy
10:53 PM27.0 °F18.0 °F69 %30.23 in10.0 miWNW (300°)12.7 mphPartly Cloudy
11:53 PM26.1 °F17.1 °F69 %30.27 in10.0 miWNW (300°)13.8 mph20.7 mphMostly Cloudy
Hourly data recorded from KHVR, located miles away from Zurich, Montana







STORIES FROM OUR PARTNERS